Location: *
(29.5744°N, 95.4939°W)
Time: 12:47:55
(UTC+00:00)

Daily predictions for brighter satellites

Satellite Brightness Start Highest point End
(mag) Time Altitude Azimuth Time Altitude Azimuth Time Altitude Azimuth
Cosmos 1825 3.7 12:02:07 10° SSE 12:05:38 40° E 12:09:10 10° NNE
STARLINK-80 4.4 12:02:38 10° WSW 12:05:56 27° NW 12:09:15 10° NNE
ASTEX 1 4.4 12:02:47 10° SW 12:06:47 25° W 12:10:49 10° NW
STARLINK-34 4.5 12:03:32 10° SSW 12:07:34 54° SE 12:11:36 10° NE
Cosmos 1697 Rocket 3.2 12:03:52 10° NW 12:09:02 39° WSW 12:14:11 10° S
Okean O Rocket 1.6 12:05:01 10° N 12:09:15 56° WNW 12:13:29 10° SSW
Cosmos 1356 Rocket 3.8 12:07:54 10° NNW 12:12:01 46° W 12:16:06 10° SSW
STARLINK-77 4.5 12:08:19 10° SSW 12:12:21 55° SE 12:16:24 10° NE
STARLINK-48 4.3 12:09:50 10° WSW 12:13:20 31° NW 12:16:49 10° NNE
STARLINK-25 4.4 12:09:57 10° SSW 12:14:00 58° SE 12:18:04 10° NE
Lacrosse 4 Rocket 3.3 12:12:35 10° WNW 12:14:25 13° WSW 12:16:15 10° SW
STARLINK-71 4.0 12:11:45 10° SSW 12:15:51 69° SE 12:19:58 10° NE
FENGYUN 3A 3.9 12:10:39 10° N 12:15:52 50° WNW 12:21:03 10° SSW
Lacrosse 5 3.8 12:15:50 10° NW 12:16:55 11° NW 12:18:00 10° NNW
STARLINK-79 4.2 12:13:15 10° SSW 12:17:19 63° SE 12:21:25 10° NE
STARLINK-78 4.1 12:14:54 10° SSW 12:19:00 67° SE 12:23:06 10° NE
Cosmos 2082 Rocket 3.9 12:19:14 10° WNW 12:21:16 12° WNW 12:23:19 10° NW
ATLAS 3B CENTAUR R/B 3.9 12:19:39 10° WSW 12:36:13 73° S 12:42:46 10° E
USA 229 DEB 3.6 23:43:06 10° SSW 23:49:32 77° ESE 23:56:13 10° NNE
USA 229 3.6 23:43:14 10° SSW 23:49:40 76° ESE 23:56:19 10° NNE
ERBS 3.1 23:48:27 10° S 23:51:29 34° ESE 23:54:32 10° NE
